Location: Hopkins Observatory
(42.6965°N, 73.1843°W)
Time: 13:31:16
(UTC-04:00)

UOSAT-12 - Visible Passes

Search period start: 02 September 2014 00:00
Search period end: 12 September 2014 00:00
Orbit: 594 x 664 km, 64.6° (Epoch: 01 September)

Date Brightness Start Highest point End Pass type
(mag) Time Alt. Az. Time Alt. Az. Time Alt. Az.
02 Sep 7.5 05:09:51 10° SSW 05:14:26 68° ESE 05:19:07 10° NE visible
03 Sep 9.4 03:53:05 13° SE 03:55:18 18° ESE 03:58:23 10° ENE visible
03 Sep 7.3 05:30:28 10° SW 05:34:59 58° NW 05:39:39 10° NNE visible
04 Sep 8.3 04:13:40 26° SSE 04:15:32 38° ESE 04:19:52 10° NE visible
04 Sep 8.2 05:51:39 10° WSW 05:55:45 30° NW 05:59:55 10° NNE visible
05 Sep 7.1 04:34:09 38° SSW 04:35:57 83° ESE 04:40:40 10° NE visible
06 Sep 9.2 03:17:12 21° ESE 03:17:12 21° ESE 03:20:17 10° ENE visible
06 Sep 7.6 04:54:33 29° WSW 04:56:33 48° NW 05:01:08 10° NNE visible
07 Sep 8.0 03:37:33 44° E 03:37:33 44° E 03:41:31 10° NE visible
07 Sep 8.5 05:14:54 17° W 05:17:22 26° NW 05:21:20 10° NNE visible
08 Sep 7.2 03:57:50 74° N 03:57:50 74° N 04:02:13 10° NNE visible
08 Sep 9.2 05:35:37 10° WNW 05:38:23 15° NW 05:41:11 10° N visible
09 Sep 9.7 02:40:43 17° ENE 02:40:43 17° ENE 02:42:04 10° ENE visible
09 Sep 7.8 04:18:04 40° NW 04:18:08 40° NW 04:22:36 10° NNE visible
10 Sep 9.1 03:00:55 27° NE 03:00:55 27° NE 03:03:07 10° NE visible
10 Sep 8.7 04:38:15 22° NW 04:39:00 22° NW 04:42:43 10° N visible
11 Sep 8.7 03:21:03 33° NNE 03:21:03 33° NNE 03:23:43 10° NNE visible
11 Sep 9.3 04:58:24 12° NW 05:00:04 14° NNW 05:02:25 10° N visible
